Regional Weather Roundup
Issued by NWS

Home | Current Version | Previous Version | Text Only | Print | Product List | Glossary On
Versions: 1 2 3 4 5 6 7 8 9 10 11 12 13 14 15 16 17 18 19 20 21 22 23 24 25 26 27 28 29 30 31 32 33 34 35 36 37 38 39 40 41 42 43 44 45 46 47 48 49 50
000
ASUS43 KMKX 230600
RWRWI

WISCONSIN REGIONAL WEATHER ROUNDUP
NATIONAL WEATHER SERVICE MILWAUKEE/SULLIVAN WI
100 AM CDT TUE MAY 23 2017

NOTE: "FAIR" INDICATES FEW OR NO CLOUDS BELOW 12,000 FEET WITH NO
SIGNIFICANT WEATHER AND/OR OBSTRUCTIONS TO VISIBILITY.

WIZ001-002-006>008-014>016-023>028-230700-
NORTHWEST WISCONSIN

CITY           SKY/WX    TMP DP  RH WIND       PRES   REMARKS
SUPERIOR ARPT  NOT AVBL
ASHLAND        CLOUDY    48  46  93 S3        29.83S
6HR MIN TEMP:  47; 6HR MAX TEMP:  54;

HAYWARD        CLOUDY    41  39  93 CALM      29.83S FOG
6HR MIN TEMP:  41; 6HR MAX TEMP:  56;

SIREN          CLOUDY    43  42  95 CALM      29.83S
CUMBERLAND     PTCLDY    45  43  93 N5        29.82F
RICE LAKE      PTCLDY    47  46  93 CALM      29.83F
6HR MIN TEMP:  47; 6HR MAX TEMP:  60;

CHETEK         PTCLDY    46  46  98 CALM      29.82F
LADYSMITH      CLOUDY    45  44  96 CALM      29.84S
EAU CLAIRE     CLOUDY    51  47  86 N3        29.79F
6HR MIN TEMP:  51; 6HR MAX TEMP:  63;

MENOMONIE      LGT RAIN  51  47  84 NW5       29.81F
6HR MIN TEMP:  51; 6HR MAX TEMP:  62; 6HR PCP:  0.01;

NEW RICHMOND   CLOUDY    50  46  86 NW3       29.82F
OSCEOLA        CLOUDY    49  49 100 CALM      29.85F
$$

WIZ003>005-009-010-017-018-230700-
NORTH CENTRAL WISCONSIN

CITY           SKY/WX    TMP DP  RH WIND       PRES   REMARKS
MANITOWISH WTR CLOUDY    42  42 100 CALM      29.82F
ARBOR VITAE      N/A     42  41  95 CALM      29.82F FOG
WOODRUFF         N/A     42  41  95 CALM      29.82F FOG
RHINELANDER    CLEAR     41  39  93 CALM      29.83F
6HR MIN TEMP:  41; 6HR MAX TEMP:  57;

EAGLE RIVER    CLOUDY    46  46  99 CALM      29.83S
LAND O LAKES   CLOUDY    44  43  99 CALM      29.84F
6HR MIN TEMP:  44; 6HR MAX TEMP:  52;

PHILLIPS       CLOUDY    40  40 100 CALM      29.82S
6HR MIN TEMP:  39; 6HR MAX TEMP:  55;

TOMAHAWK       MOCLDY    38  37  97 CALM      29.83F
MEDFORD        CLOUDY    46  42  88 NE5       29.81F
MERRILL        PTCLDY    42  42 100 CALM      29.83F
6HR MIN TEMP:  41; 6HR MAX TEMP:  60;

$$

WIZ029-030-035-036-043>047-230700-
CENTRAL WISCONSIN

CITY           SKY/WX    TMP DP  RH WIND       PRES   REMARKS
WAUSAU         CLOUDY    48  43  82 CALM      29.80F
6HR MIN TEMP:  46; 6HR MAX TEMP:  61;

MOSINEE        CLOUDY    46  43  87 E5        29.83F
MARSHFIELD     MOCLDY    51  43  74 E6        29.80F
6HR MIN TEMP:  51; 6HR MAX TEMP:  62;

STEVENS POINT  CLOUDY    49  43  80 NE6       29.82F
WAUPACA        CLOUDY    56  48  75 E7        29.82S
6HR MIN TEMP:  55; 6HR MAX TEMP:  69;

WAUTOMA        CLOUDY    57  49  74 CALM      29.81
6HR MIN TEMP:  51; 6HR MAX TEMP:  66;

WISC RAPIDS    CLOUDY    54  46  74 CALM      29.82F
6HR MIN TEMP:  51; 6HR MAX TEMP:  67; 6HR PCP: TRACE;

CAMP DOUGLAS   RAIN      53  52  97 NE3       29.82S FOG
6HR MIN TEMP:  52; 6HR MAX TEMP:  67; 6HR PCP:  0.50;

$$

WIZ011>013-019>022-031-037>040-048>050-230700-
NORTHEAST WISCONSIN

CITY           SKY/WX    TMP DP  RH WIND       PRES   REMARKS
ANTIGO         PTCLDY    43  41  93 CALM      29.83F
SHAWANO        MOCLDY    51  46  84 E3        29.84F
6HR MIN TEMP:  50; 6HR MAX TEMP:  66;

OCONTO         PTCLDY    43  42  99 CALM      29.84F
STURGEON BAY   MOCLDY    45  44  97 SE5       29.85F
6HR MIN TEMP:  44; 6HR MAX TEMP:  57;

GREEN BAY      PTCLDY    50  47  89 E6        29.83F
6HR MIN TEMP:  49; 6HR MAX TEMP:  65; 6HR PCP:  0.01;

MANITOWOC      NOT AVBL
APPLETON       CLOUDY    54  43  66 NE7       29.81F
CLINTONVILLE   MOCLDY    50  45  81 E6        29.83F
OSHKOSH        CLOUDY    57  53  86 CALM      29.81S
6HR MIN TEMP:  52; 6HR MAX TEMP:  65;

$$

WIZ032>034-041-042-053>061-230700-
SOUTHWEST WISCONSIN

CITY           SKY/WX    TMP DP  RH WIND       PRES   REMARKS
LA CROSSE      PTCLDY    55  54  96 CALM      29.78F
6HR MIN TEMP:  55; 6HR MAX TEMP:  69; 6HR PCP:  0.25;

SPARTA         RAIN      52  52 100 SE3       29.82S
VIROQUA        PTCLDY    52  52  99 MISG      29.79F
6HR MIN TEMP:  52; 6HR MAX TEMP:  66; 6HR PCP:  0.67;

BOSCOBEL       CLOUDY    54  53  97 VRB3      29.80F
6HR MIN TEMP:  54; 6HR MAX TEMP:  66; 6HR PCP:  0.52;

PRAIRIE DU CHI CLOUDY    54  52  94 E3        29.79F
PLATTEVILLE    CLOUDY    58  58 100 SW6       29.83S
$$

WIZ056-057-062-063-064-067-068-230700-
SOUTH CENTRAL WISCONSIN

CITY           SKY/WX    TMP DP  RH WIND       PRES   REMARKS
REEDSBURG      RAIN      55  55 100 S8        29.81R
6HR MIN TEMP:  55; 6HR MAX TEMP:  64; 6HR PCP:  0.03;

BARABOO/DELLS  CLOUDY    55  52  88 SW8       29.80S
LONE ROCK      CLOUDY    56  54  93 SE3       29.81F
MINERAL POINT  CLOUDY    54  54 100 CALM      29.82F
MADISON        CLOUDY    55  53  93 SW6       29.82F
6HR MIN TEMP:  55; 6HR MAX TEMP:  65; 6HR PCP:  0.07;

MIDDLETON      CLOUDY    56  52  87 SW7       29.83S
WATERTOWN      CLOUDY    57  57 100 S6        29.83F
MONROE         CLOUDY    55  54  94 S12       29.83S
JANESVILLE     CLOUDY    57  55  94 S8        29.83F
$$

WIZ051-052-058>065-066-070>072-230700-
SOUTHEAST WISCONSIN

CITY           SKY/WX    TMP DP  RH WIND       PRES   REMARKS
MILWAUKEE      MOCLDY    60  54  80 SW9       29.84F
6HR MIN TEMP:  60; 6HR MAX TEMP:  64; 6HR PCP: TRACE;

WAUKESHA       CLOUDY    54  52  94 SW6       29.85F
MILWAUKEE/TIMM   N/A     57  50  77 SW7       29.84F
RACINE         CLOUDY    58  52  80 SW9       29.86F
6HR MIN TEMP:  58; 6HR MAX TEMP:  68;

KENOSHA        CLOUDY    58  53  84 SW9       29.85F
6HR MIN TEMP:  58; 6HR MAX TEMP:  68;

FOND DU LAC    CLOUDY    56  52  86 S8        29.81F
6HR MIN TEMP:  54; 6HR MAX TEMP:  64;

SHEBOYGAN      PTCLDY    51  50  96 CALM      29.82F
6HR MIN TEMP:  50; 6HR MAX TEMP:  64;

WEST BEND      PTCLDY    54  54 100 SW3       29.83F
JUNEAU         CLOUDY    56  54  94 S5        29.83F
$$

LSZ147-162-230700-
LAKE SUPERIOR

STATION/POSITION TIME  TEMP    WIND        PRES    WAVE
                       AIR SEA DIR/SP/G            HT/PER
                 (UTC) (F)     (DEG/KT/KT) (MB)    (FT/S)
W MID LAKE BUOY  0450   41 37  240/  4/  4 1010.6R   1
DEVILS ISLAND    0500   47     220/  6/  7 1010.3S
PORT WING        0530   47      CALM  /  2 1010.5S
SAXON HARBOR     0540   47     200/  3/  4 1009.5F
$$

LMZ867-665-643>646-230700-
LAKE MICHIGAN

STATION/POSITION TIME  TEMP    WIND        PRES    WAVE
                       AIR SEA DIR/SP/G            HT/PER
                 (UTC) (F)     (DEG/KT/KT) (MB)    (FT/S)
CHAMBERS ISLAND  0540   42     140/  2/  3 1010.5F
N MID LAKE BUOY  0450   43 39  230/  4/  4 1012.1F   3/ 6
NORTHPORT PIER   0540   46     240/  2/  3 1010.8F
SISTER BAY       0506   48     170/  6/  8   N/A
KEWAUNEE LAKESHO 0530   50      20/  3/  5 1010.3F
SHEBOYGAN LAKESH 0500   54     210/  5/  5 1010.1S
PORT WASHINGTON  0540   51     210/  2/  2 1010.8F
ATWATER BUOY     0409   60     220/ 12/ 14 1011.0F
MILWAUKEE LAKESH 0530   60     240/ 11/ 14   N/A
S MID LAKE BUOY  0450   50 45  220/ 10/ 12 1011.6F   1/ 3
KENOSHA   LAKESH 0500   60     230/  6/ 11 1011.2
$$

TC  - TEMPERATURE IN CELSIUS
VSB - VISIBILITY IN STATUTE MILES
WCI - WIND CHILL INDEX
HX  - HEAT INDEX





USA.gov is the U.S. government's official web portal to all federal, state and local government web resources and services.